EW5945 Weather Reports


Display with metric or nautical units.
time (UTC)temp
F
wind
direction
speed
MPH
gust
MPH
rain 1hr
in
rain 24hr
in
rain mn
in
humidity
%
barometer
mb
20260508061730 52 223 0.0 0.0 0.00 0.00 0.00 97 1013.2
20260508061227 52 222 0.0 2.0 0.00 0.00 0.00 97 1012.9
20260508060729 52 200 0.0 0.0 0.00 0.00 0.00 97 1012.9
20260508060229 52 207 0.0 0.0 0.00 0.00 0.00 97 1012.9
20260508055728 52 173 0.0 2.0 0.00 0.00 0.00 97 1013.2
20260508055229 52 275 0.0 2.0 0.00 0.00 0.00 97 1012.9
20260508054729 52 303 0.0 4.0 0.00 0.00 0.00 97 1012.9
20260508054228 53 304 0.0 4.0 0.00 0.00 0.00 97 1012.9
20260508053729 53 38 0.0 4.0 0.00 0.00 0.00 97 1012.9
20260508053229 53 318 0.0 2.0 0.00 0.00 0.00 97 1012.9
20260508052727 53 2 0.0 5.0 0.00 0.00 0.00 97 1013.2
20260508052227 53 318 2.0 4.0 0.00 0.00 0.00 97 1012.9
20260508051730 53 274 0.0 4.0 0.00 0.00 0.00 97 1012.9
20260508051230 53 183 2.0 7.0 0.00 0.00 0.00 97 1012.9
20260508050728 53 31 4.0 9.0 0.00 0.00 0.00 97 1012.9
20260508050228 53 44 4.0 9.0 0.00 0.00 0.00 97 1012.9
20260508045727 53 188 2.0 5.0 0.00 0.00 0.00 97 1012.9
20260508045227 53 340 2.0 7.0 0.00 0.00 0.00 97 1012.9
20260508044728 53 51 4.0 7.0 0.00 0.00 0.00 97 1012.9
20260508044228 53 349 2.0 7.0 0.00 0.00 0.00 97 1012.5
20260508043728 53 3 4.0 11.0 0.00 0.00 0.00 97 1012.9
20260508043229 53 16 4.0 7.0 0.00 0.00 0.00 98 1012.5
20260508042728 53 52 7.0 14.0 0.00 0.00 0.00 98 1012.5
20260508042228 53 87 2.0 7.0 0.00 0.00 0.00 98 1012.5
20260508041727 54 57 7.0 11.0 0.00 0.00 0.00 98 1012.5
20260508041229 54 52 4.0 7.0 0.00 0.00 0.00 98 1012.2
20260508040731 54 343 4.0 7.0 0.00 0.00 0.00 98 1012.2
20260508040227 54 315 4.0 9.0 0.00 0.00 0.00 98 1011.9
20260508035727 54 2 2.0 7.0 0.00 0.00 0.67 98 1011.9
20260508035227 54 57 0.0 4.0 0.00 0.00 0.67 98 1011.9
20260508034728 54 350 2.0 4.0 0.00 0.00 0.67 98 1011.9
20260508034229 54 38 2.0 5.0 0.00 0.00 0.67 98 1011.9
20260508033731 54 122 0.0 4.0 0.00 0.00 0.67 98 1012.2
20260508033227 54 285 0.0 2.0 0.00 0.00 0.67 98 1011.9
20260508032730 54 337 0.0 2.0 0.00 0.00 0.67 98 1011.5
20260508032228 54 222 2.0 5.0 0.00 0.00 0.67 98 1011.5
20260508031731 54 250 0.0 2.0 0.00 0.00 0.67 98 1011.5
20260508031227 54 321 2.0 9.0 0.00 0.00 0.67 98 1011.9
20260508030728 54 32 4.0 11.0 0.00 0.00 0.67 98 1012.2
20260508030229 55 299 7.0 13.0 0.00 0.00 0.67 99 1011.9
20260508025730 55 82 4.0 11.0 0.00 0.00 0.67 99 1011.9
20260508025229 55 318 4.0 11.0 0.00 0.00 0.67 99 1011.9
20260508024729 55 8 9.0 16.0 0.00 0.00 0.67 99 1011.9
20260508024229 55 49 9.0 16.0 0.00 0.00 0.67 99 1012.2
20260508023729 55 59 11.0 20.0 0.00 0.00 0.66 99 1012.2
20260508023227 56 63 9.0 11.0 0.00 0.00 0.66 99 1013.2
20260508022728 56 163 9.0 14.0 0.00 0.00 0.66 99 1011.5
20260508022227 56 9 11.0 20.0 0.00 0.00 0.66 98 1010.8
20260508021728 56 63 4.0 13.0 0.00 0.00 0.66 98 1011.2
20260508021227 56 33 9.0 16.0 0.00 0.00 0.66 98 1010.8
20260508020729 56 30 9.0 18.0 0.00 0.00 0.66 98 1010.8
20260508020228 56 357 7.0 11.0 0.00 0.00 0.66 98 1010.8
20260508015729 56 351 4.0 18.0 0.00 0.00 0.66 98 1010.8
20260508015228 56 352 7.0 14.0 0.00 0.00 0.66 98 1010.5
20260508014727 56 46 11.0 18.0 0.00 0.00 0.66 98 1010.5
20260508014228 57 49 9.0 14.0 0.00 0.00 0.66 97 1010.5
20260508013727 57 5 9.0 14.0 0.00 0.00 0.66 97 1010.2
20260508013228 57 39 9.0 13.0 0.00 0.00 0.66 97 1010.2
20260508012728 57 326 9.0 14.0 0.00 0.00 0.66 97 1010.2
20260508012228 57 61 9.0 13.0 0.00 0.00 0.66 97 1010.2
20260508011730 57 6 9.0 13.0 0.00 0.00 0.66 97 1009.8
20260508011228 57 72 9.0 14.0 0.00 0.00 0.66 97 1009.8
20260508010728 57 18 9.0 16.0 0.00 0.00 0.66 97 1009.8
20260508010229 58 107 9.0 16.0 0.00 0.00 0.66 97 1009.8
20260508005728 58 5 11.0 18.0 0.00 0.00 0.66 97 1009.5
20260508005228 58 45 11.0 18.0 0.00 0.00 0.66 97 1009.5
20260508004728 58 63 15.0 20.0 0.00 0.00 0.66 96 1009.1
20260508004229 59 22 11.0 20.0 0.00 0.00 0.66 97 1009.1
20260508003735 59 353 7.0 14.0 0.00 0.00 0.66 97 1008.8
20260508003228 59 352 11.0 18.0 0.00 0.00 0.66 97 1009.1
20260508002727 59 39 13.0 20.0 0.00 0.00 0.66 97 1008.8
20260508002227 60 23 9.0 14.0 0.00 0.00 0.66 96 1008.8
20260508001728 60 50 13.0 14.0 0.00 0.00 0.66 96 1008.8
20260508001229 60 45 18.0 27.0 0.00 0.00 0.66 96 1008.8
20260508000729 61 22 9.0 16.0 0.00 0.00 0.66 96 1008.8
20260508000228 61 285 7.0 14.0 0.00 0.00 0.66 96 1008.5
20260507235729 61 47 15.0 18.0 0.00 0.00 0.66 96 1008.5
20260507235227 62 348 9.0 13.0 0.00 0.00 0.66 95 1008.5
20260507234728 62 22 11.0 16.0 0.00 0.00 0.66 95 1008.5
20260507234229 63 130 7.0 14.0 0.00 0.00 0.66 94 1008.5
20260507233728 63 155 11.0 22.0 0.00 0.00 0.66 94 1008.1
20260507232728 65 28 18.0 27.0 0.00 0.00 0.66 92 1007.8
20260507232227 66 107 11.0 16.0 0.00 0.00 0.66 91 1007.8
20260507231730 68 34 13.0 18.0 0.00 0.00 0.66 90 1007.5
20260507231228 70 41 15.0 22.0 0.00 0.00 0.66 88 1007.1
20260507230727 72 282 7.0 9.0 0.00 0.00 0.66 92 1007.1
20260507230228 73 225 7.0 11.0 0.00 0.00 0.66 91 1007.1
20260507225728 73 197 4.0 7.0 0.00 0.00 0.66 90 1007.1
20260507225227 73 281 4.0 9.0 0.00 0.00 0.66 90 1006.8
20260507224727 74 249 7.0 9.0 0.00 0.00 0.66 89 1006.8
20260507224227 74 231 4.0 7.0 0.00 0.00 0.66 90 1007.1
20260507223727 74 231 7.0 9.0 0.00 0.00 0.66 90 1007.1
20260507223227 74 270 9.0 13.0 0.00 0.00 0.66 90 1007.1
20260507222728 74 241 7.0 9.0 0.00 0.00 0.66 89 1007.1
20260507222228 74 213 7.0 13.0 0.00 0.00 0.66 91 1007.1
20260507221729 73 238 9.0 14.0 0.00 0.00 0.66 91 1007.1
20260507221228 73 221 11.0 18.0 0.00 0.00 0.66 91 1007.1
20260507220727 73 233 7.0 13.0 0.00 0.00 0.66 92 1007.1
20260507220228 72 238 9.0 13.0 0.00 0.00 0.66 94 1007.1
20260507215727 72 215 7.0 13.0 0.00 0.00 0.66 94 1007.1
20260507215227 71 241 7.0 14.0 0.00 0.00 0.66 94 1007.1
20260507214728 71 216 7.0 11.0 0.00 0.00 0.66 94 1007.1
20260507214228 71 192 4.0 11.0 0.00 0.00 0.66 94 1007.1
20260507213728 71 207 4.0 7.0 0.00 0.00 0.66 94 1007.1
20260507213228 71 255 4.0 9.0 0.00 0.00 0.66 94 1007.1
20260507212727 71 205 4.0 9.0 0.00 0.00 0.66 94 1007.1
20260507212227 71 233 4.0 7.0 0.00 0.00 0.66 94 1007.1
20260507211728 72 248 2.0 7.0 0.00 0.00 0.66 94 1006.8
20260507211228 72 233 2.0 5.0 0.00 0.00 0.66 94 1006.8
20260507210727 72 253 2.0 5.0 0.00 0.00 0.66 94 1006.4
20260507210228 72 275 2.0 4.0 0.00 0.00 0.66 94 1006.4
20260507205728 72 258 2.0 4.0 0.00 0.00 0.66 94 1006.1
20260507205228 71 215 0.0 0.0 0.00 0.00 0.66 94 1006.1
20260507204727 71 209 2.0 5.0 0.00 0.00 0.66 94 1006.4
20260507204228 71 227 2.0 5.0 0.00 0.00 0.66 94 1006.4
20260507203727 71 247 2.0 5.0 0.00 0.00 0.66 94 1006.4
20260507203229 71 256 2.0 5.0 0.00 0.00 0.66 94 1006.4
20260507202727 71 215 4.0 7.0 0.00 0.00 0.66 94 1006.8
20260507202227 71 209 2.0 5.0 0.00 0.00 0.66 94 1007.1
20260507201302 71 278 4.0 11.0 0.00 0.00 0.66 93 1007.5
20260507200727 71 266 4.0 11.0 0.00 0.00 0.66 93 1007.5
20260507200228 71 220 7.0 13.0 0.00 0.00 0.66 93 1007.5
20260507195728 72 200 7.0 13.0 0.00 0.00 0.66 92 1007.5
20260507195228 72 269 9.0 11.0 0.00 0.00 0.66 92 1007.5
20260507194727 72 215 9.0 14.0 0.00 0.00 0.66 91 1007.5
20260507194227 72 204 15.0 25.0 0.00 0.00 0.66 91 1007.1
20260507193728 71 226 15.0 22.0 0.00 0.00 0.66 92 1007.5
20260507193233 71 208 18.0 20.0 0.00 0.00 0.66 92 1007.5
20260507192729 71 207 18.0 32.0 0.00 0.00 0.66 91 1007.5
20260507192229 71 194 18.0 25.0 0.00 0.00 0.66 92 1007.5
20260507191729 71 246 18.0 25.0 0.00 0.00 0.66 92 1007.5
20260507191227 71 311 18.0 20.0 0.00 0.00 0.66 93 1007.8
20260507190728 71 205 11.0 16.0 0.00 0.00 0.66 94 1007.8
20260507190228 70 198 18.0 23.0 0.00 0.00 0.66 94 1007.8
20260507185728 70 242 13.0 23.0 0.00 0.00 0.66 95 1007.8
20260507185228 70 236 15.0 20.0 0.00 0.00 0.66 96 1008.1
20260507184729 70 214 13.0 20.0 0.00 0.00 0.66 95 1008.1
20260507184229 70 230 13.0 22.0 0.00 0.00 0.66 96 1008.1
20260507183729 70 198 13.0 20.0 0.00 0.00 0.66 96 1008.1
20260507183229 70 196 13.0 16.0 0.01 0.00 0.66 97 1008.1
20260507182730 70 212 13.0 16.0 0.01 0.00 0.66 97 1008.8
20260507182229 70 212 11.0 18.0 0.01 0.00 0.66 98 1008.8
20260507181727 70 164 13.0 23.0 0.01 0.00 0.66 98 1008.8
20260507181227 70 199 11.0 18.0 0.02 0.00 0.66 99 1008.8
20260507180730 70 248 7.0 14.0 0.01 0.00 0.66 99 1008.8
20260507180227 69 243 13.0 23.0 0.02 0.00 0.65 99 1008.8
20260507175730 70 246 9.0 16.0 0.03 0.00 0.65 99 1009.1
20260507175228 70 207 9.0 13.0 0.03 0.00 0.65 99 1009.1
20260507174727 70 194 9.0 14.0 0.04 0.00 0.65 99 1008.8
20260507174227 70 234 9.0 14.0 0.04 0.00 0.64 99 1009.1
20260507173728 69 225 7.0 11.0 0.04 0.00 0.64 99 1009.5
20260507173228 70 221 9.0 16.0 0.04 0.00 0.64 99 1009.5
20260507172727 70 222 15.0 25.0 0.04 0.00 0.63 99 1009.8
20260507172230 70 152 11.0 18.0 0.04 0.00 0.62 99 1010.2
20260507171730 70 260 18.0 22.0 0.03 0.00 0.62 99 1009.8
20260507171230 70 253 11.0 18.0 0.03 0.00 0.60 99 1010.2
20260507170728 70 222 11.0 22.0 0.02 0.00 0.58 99 1010.2
20260507170228 70 246 9.0 18.0 0.02 0.00 0.55 99 1010.2
20260507165728 70 224 9.0 14.0 0.02 0.00 0.52 98 1010.2
20260507165228 70 218 9.0 13.0 0.01 0.00 0.50 98 1010.2
20260507164728 70 227 11.0 16.0 0.01 0.00 0.48 98 1010.2
20260507164228 70 189 9.0 14.0 0.01 0.00 0.46 97 1010.2
20260507163730 71 216 9.0 11.0 0.01 0.00 0.46 97 1010.2
20260507163231 71 209 11.0 16.0 0.01 0.00 0.45 97 1010.2
20260507162727 71 204 9.0 14.0 0.01 0.00 0.44 97 1010.2
20260507162228 71 211 9.0 13.0 0.01 0.00 0.44 97 1010.2
20260507161728 71 253 9.0 14.0 0.01 0.00 0.43 97 1010.2
20260507161229 71 205 9.0 16.0 0.01 0.00 0.43 97 1010.2
20260507160730 71 222 9.0 14.0 0.01 0.00 0.43 97 1010.2
20260507160228 72 220 4.0 14.0 0.01 0.00 0.43 97 1009.8
20260507155728 72 193 7.0 11.0 0.01 0.00 0.43 97 1010.2
20260507155228 72 202 9.0 13.0 0.01 0.00 0.41 97 1010.5
20260507154730 72 244 9.0 13.0 0.00 0.00 0.41 97 1010.5
20260507154228 73 214 7.0 11.0 0.00 0.00 0.39 97 1010.8
20260507153728 73 240 9.0 13.0 0.00 0.00 0.39 96 1010.5
20260507153228 73 231 9.0 13.0 0.00 0.00 0.39 96 1010.5
20260507152727 73 215 7.0 13.0 0.00 0.00 0.39 96 1010.5
20260507152231 73 212 4.0 9.0 0.00 0.00 0.38 95 1010.2
20260507151728 73 214 7.0 11.0 0.00 0.00 0.38 95 1010.2
20260507151227 73 221 9.0 14.0 0.00 0.00 0.38 95 1010.2
20260507150729 73 173 9.0 14.0 0.00 0.00 0.38 95 1009.8
20260507145728 73 191 11.0 16.0 0.00 0.00 0.38 95 1009.8
20260507145230 73 206 11.0 18.0 0.00 0.00 0.38 95 1010.2
20260507144730 73 212 11.0 14.0 0.00 0.00 0.38 96 1009.8
20260507144229 73 202 7.0 13.0 0.00 0.00 0.38 96 1009.8
20260507143731 72 208 7.0 11.0 0.00 0.00 0.38 97 1010.2
20260507143228 72 208 7.0 13.0 0.00 0.00 0.38 97 1010.2
20260507142727 72 217 9.0 13.0 0.00 0.00 0.38 98 1010.2
20260507142228 72 224 7.0 13.0 0.00 0.00 0.38 98 1010.2
20260507141241 72 231 7.0 13.0 0.00 0.00 0.38 99 1010.2
20260507140728 71 206 9.0 16.0 0.00 0.00 0.38 99 1010.2
20260507140227 71 239 9.0 14.0 0.00 0.00 0.38 100 1010.2
20260507135729 71 221 7.0 13.0 0.00 0.00 0.38 100 1009.8
20260507135228 71 212 4.0 9.0 0.00 0.00 0.38 100 1009.8
20260507134730 71 246 4.0 11.0 0.00 0.00 0.38 100 1009.5
20260507134227 71 214 2.0 7.0 0.00 0.00 0.38 100 1009.5
20260507133728 71 197 2.0 7.0 0.00 0.00 0.38 100 1009.5
20260507133230 70 208 2.0 7.0 0.00 0.00 0.38 100 1009.5
20260507132728 70 204 2.0 7.0 0.00 0.00 0.38 100 1009.8
20260507132235 70 177 2.0 7.0 0.00 0.00 0.38 100 1010.2
20260507131728 69 244 7.0 16.0 0.00 0.00 0.38 100 1010.2
20260507131228 69 215 9.0 16.0 0.00 0.00 0.38 100 1010.2
20260507130730 69 197 9.0 18.0 0.00 0.00 0.38 100 1010.5
20260507130230 69 215 11.0 18.0 0.00 0.00 0.38 100 1010.5
20260507125727 69 201 4.0 11.0 0.00 0.00 0.38 100 1010.5
20260507125229 69 163 11.0 18.0 0.01 0.00 0.38 100 1010.8
20260507124729 69 212 7.0 16.0 0.01 0.00 0.38 100 1010.8
20260507124229 69 204 11.0 18.0 0.01 0.00 0.38 100 1011.2
20260507123733 69 229 11.0 16.0 0.01 0.00 0.38 100 1011.2
20260507123228 69 219 11.0 14.0 0.01 0.00 0.37 100 1011.2
20260507122728 69 211 15.0 23.0 0.01 0.00 0.37 100 1011.2
20260507122227 69 225 13.0 22.0 0.01 0.00 0.37 100 1011.2
20260507121727 69 237 13.0 22.0 0.01 0.00 0.37 100 1011.2
20260507121228 69 214 11.0 27.0 0.01 0.00 0.37 100 1011.2
20260507120727 69 205 11.0 23.0 0.01 0.00 0.37 100 1011.5
20260507120229 69 229 9.0 16.0 0.02 0.00 0.37 100 1011.5
20260507115728 69 204 4.0 7.0 0.02 0.00 0.37 100 1011.9
20260507115227 69 200 4.0 11.0 0.01 0.00 0.36 100 1012.2
20260507114728 69 237 7.0 9.0 0.02 0.00 0.35 100 1012.5
20260507114228 69 195 7.0 14.0 0.02 0.00 0.35 100 1012.5
20260507113729 69 211 7.0 11.0 0.01 0.00 0.34 100 1012.5
20260507113228 69 222 4.0 9.0 0.03 0.00 0.33 100 1012.5
20260507112728 69 208 7.0 9.0 0.03 0.00 0.32 100 1012.5
20260507112230 69 220 7.0 11.0 0.04 0.00 0.31 100 1012.5
20260507111731 69 214 4.0 7.0 0.04 0.00 0.31 100 1012.5
20260507111229 69 210 4.0 5.0 0.04 0.00 0.30 100 1012.5
20260507110728 69 229 4.0 5.0 0.05 0.00 0.30 100 1012.5
20260507110228 69 235 7.0 11.0 0.05 0.00 0.29 100 1012.5
20260507105728 69 242 4.0 9.0 0.05 0.00 0.28 100 1012.5
20260507105228 69 230 7.0 11.0 0.05 0.00 0.28 100 1012.5
20260507104727 69 242 4.0 9.0 0.05 0.00 0.28 100 1012.5
20260507104228 69 199 4.0 11.0 0.04 0.00 0.27 100 1012.5
20260507103729 69 212 4.0 9.0 0.04 0.00 0.26 100 1012.2
20260507103227 69 201 4.0 11.0 0.03 0.00 0.23 100 1012.5
20260507102729 69 218 7.0 7.0 0.02 0.00 0.18 100 1012.2
20260507102229 69 250 4.0 9.0 0.01 0.00 0.12 100 1012.2
20260507101729 69 231 7.0 9.0 0.01 0.00 0.11 100 1011.9
20260507101227 69 221 0.0 7.0 0.01 0.00 0.09 100 1011.9
20260507100728 69 228 0.0 4.0 0.00 0.00 0.06 100 1011.9
20260507100228 69 223 2.0 4.0 0.00 0.00 0.05 100 1011.9
20260507095727 68 221 0.0 4.0 0.00 0.00 0.04 100 1011.9
20260507095231 68 222 0.0 2.0 0.00 0.00 0.04 100 1011.9
20260507094728 68 228 0.0 0.0 0.00 0.00 0.04 100 1011.9
20260507094228 68 227 0.0 2.0 0.00 0.00 0.04 100 1011.9
20260507093728 68 227 0.0 2.0 0.00 0.00 0.04 100 1011.9
20260507093234 68 230 0.0 0.0 0.00 0.00 0.04 100 1011.5
20260507092728 68 230 0.0 0.0 0.00 0.00 0.04 100 1011.5
20260507092228 68 229 0.0 0.0 0.00 0.00 0.04 100 1011.9
20260507091728 68 230 0.0 0.0 0.00 0.00 0.03 99 1011.9
20260507091228 68 228 0.0 0.0 0.00 0.00 0.03 99 1011.9
20260507090728 68 235 0.0 0.0 0.00 0.00 0.03 99 1012.2
20260507090227 68 236 0.0 0.0 0.00 0.00 0.03 99 1011.9
20260507085728 68 235 0.0 2.0 0.00 0.00 0.03 99 1011.9
20260507085228 68 235 0.0 4.0 0.00 0.00 0.03 99 1011.9
20260507084728 68 226 0.0 4.0 0.00 0.00 0.03 99 1011.9
20260507084227 68 262 0.0 2.0 0.00 0.00 0.03 99 1011.5
20260507083728 68 248 0.0 0.0 0.00 0.00 0.03 99 1011.9
20260507083228 68 248 0.0 2.0 0.00 0.00 0.03 99 1011.5
20260507082727 68 255 0.0 2.0 0.00 0.00 0.03 99 1010.8
20260507082228 68 217 0.0 0.0 0.00 0.00 0.03 99 1010.8
20260507081727 68 217 0.0 0.0 0.00 0.00 0.03 99 1011.2
20260507081228 68 216 0.0 0.0 0.00 0.00 0.03 99 1011.2
20260507080727 68 215 0.0 0.0 0.00 0.00 0.03 99 1011.2
20260507080227 68 214 0.0 0.0 0.00 0.00 0.03 99 1011.5
20260507075727 68 274 0.0 2.0 0.00 0.00 0.03 98 1011.5
20260507075227 68 141 0.0 2.0 0.00 0.00 0.03 98 1011.5
20260507074727 68 211 0.0 0.0 0.00 0.00 0.03 98 1011.5
20260507074229 68 221 0.0 0.0 0.00 0.00 0.03 98 1011.9
20260507073729 68 229 0.0 0.0 0.00 0.00 0.03 98 1011.9
20260507073227 68 232 0.0 0.0 0.00 0.00 0.03 98 1012.2
20260507072728 68 232 0.0 0.0 0.00 0.00 0.03 98 1012.2
20260507072227 68 212 0.0 0.0 0.00 0.00 0.03 97 1012.2
20260507071729 69 211 0.0 0.0 0.00 0.00 0.03 97 1012.2
20260507071228 68 252 0.0 2.0 0.00 0.00 0.03 97 1012.2
20260507070729 69 205 0.0 2.0 0.00 0.00 0.03 97 1012.5
20260507070229 69 327 0.0 2.0 0.00 0.00 0.03 97 1012.5
20260507065727 69 163 0.0 2.0 0.00 0.00 0.03 97 1012.5
20260507065230 68 206 0.0 0.0 0.00 0.00 0.03 96 1012.5
20260507064728 68 200 0.0 2.0 0.00 0.00 0.03 96 1012.5
20260507064227 69 189 0.0 0.0 0.01 0.00 0.03 96 1012.5
20260507063729 69 184 0.0 2.0 0.01 0.00 0.03 95 1012.5
20260507063228 69 185 0.0 2.0 0.01 0.00 0.03 95 1012.5
20260507062730 69 190 0.0 2.0 0.00 0.00 0.03 95 1012.9
20260507062230 69 196 0.0 2.0 0.00 0.00 0.02 94 1012.9